Blythe, CA

2:23 AM PDT on October 15, 2019 (GMT -0700)
Blythe

Weather History for KBLH - September, 2019

Change the Weather History Date:

Monday, September 16, 2019

  Actual Average Record
Temperature  
Mean Temperature 93 °F -  
Max Temperature 106 °F 99 °F 109 °F (1998)
Min Temperature 81 °F 72 °F 61 °F (2016)
Cooling Degree Days 28    
Growing Degree Days 43 (Base 50)    
Moisture  
Dew Point 51 °F    
Average Humidity 28    
Maximum Humidity 61    
Minimum Humidity 9    
Precipitation  
Precipitation 0.00 in - - ()
Sea Level Pressure  
Sea Level Pressure 29.76 in    
Wind  
Wind Speed 12 mph (SSW)    
Max Wind Speed 20 mph    
Max Gust Speed 26 mph    
Visibility 10 miles    
Events      
Averages and records for this station are not official NWS values.
T = Trace of Precipitation, MM = Missing Value Source: NWS Daily Summary

Daily Weather History Graph

Daily Weather History Graph

Search for Another Location

Airport or City:

Astronomy

Sep. 16, 2019 Rise Set
Actual Time 6:22 AM PDT 6:44 PM PDT
Civil Twilight 5:57 AM PDT 7:09 PM PDT
Nautical Twilight 5:28 AM PDT 7:38 PM PDT
Astronomical Twilight 4:58 AM PDT 8:07 PM PDT
Moon 8:26 PM PDT (9/16) 8:29 AM PDT (9/16)
Length of Visible Light 13h 11m
Length of Day
12h 21m
Waning Gibbous, 94% of the Moon is Illuminated
Sep 16
Waning Gibbous
Sep 21
Last Quarter
Sep 28
New
Oct 5
First Quarter
Oct 13
Full

Hourly Weather History & Observations

Time (PDT) Temp. Heat Index Dew Point Humidity Pressure Visibility Wind Dir Wind Speed Gust Speed Precip Events Conditions
12:52 AM 86.0 °F 86.8 °F 63.0 °F 46% 29.77 in 10.0 mi South 11.5 mph - N/A   Clear
1:52 AM 84.9 °F 85.0 °F 61.0 °F 44% 29.77 in 10.0 mi SSW 6.9 mph - N/A   Clear
2:52 AM 84.0 °F 83.3 °F 57.0 °F 40% 29.77 in 10.0 mi SSE 8.1 mph - N/A   Clear
3:52 AM 82.9 °F 82.8 °F 59.0 °F 44% 29.77 in 10.0 mi South 12.7 mph - N/A   Clear
4:52 AM 82.9 °F 82.6 °F 57.9 °F 42% 29.77 in 10.0 mi South 11.5 mph - N/A   Clear
5:52 AM 82.0 °F 82.1 °F 59.0 °F 45% 29.78 in 10.0 mi SSE 11.5 mph - N/A   Clear
6:52 AM 81.0 °F 82.2 °F 63.0 °F 54% 29.81 in 10.0 mi South 11.5 mph - N/A   Unknown
7:52 AM 84.0 °F 87.0 °F 68.0 °F 58% 29.82 in 10.0 mi South 16.1 mph - N/A   Clear
8:52 AM 84.9 °F 89.4 °F 70.0 °F 61% 29.83 in 10.0 mi South 12.7 mph - N/A   Clear
9:52 AM 91.0 °F 93.0 °F 64.9 °F 42% 29.83 in 10.0 mi South 15.0 mph - N/A   Clear
10:52 AM 97.0 °F - 43.0 °F 16% 29.82 in 10.0 mi SSW 13.8 mph - N/A   Clear
11:52 AM 99.0 °F 97.3 °F 55.0 °F 23% 29.80 in 10.0 mi South 15.0 mph - N/A   Clear
12:52 PM 100.9 °F - 52.0 °F 19% 29.78 in 10.0 mi South 13.8 mph - N/A   Clear
1:52 PM 102.0 °F - 50.0 °F 17% 29.75 in 10.0 mi SSE 15.0 mph - N/A   Clear
1:59 PM 102.0 °F - 52.0 °F 19% 29.76 in 10.0 mi SSE 13.8 mph - N/A   Clear
2:52 PM 105.1 °F - 46.0 °F 14% 29.72 in 10.0 mi SW 12.7 mph 20.7 mph N/A   Clear
3:52 PM 105.1 °F - 39.9 °F 11% 29.69 in 10.0 mi West 16.1 mph 26.5 mph N/A   Partly Cloudy
4:52 PM 104.0 °F - 35.1 °F 9% 29.68 in 10.0 mi SW 17.3 mph - N/A   Partly Cloudy
5:52 PM 102.0 °F - 32.0 °F 9% 29.68 in 10.0 mi WSW 19.6 mph - N/A   Clear
6:52 PM 99.0 °F - 39.0 °F 13% 29.69 in 10.0 mi SW 13.8 mph - N/A   Clear
7:52 PM 96.1 °F - 39.0 °F 14% 29.71 in 10.0 mi WSW 8.1 mph - N/A   Clear
8:52 PM 93.9 °F - 39.9 °F 15% 29.72 in 10.0 mi SSW 10.4 mph - N/A   Clear
9:52 PM 91.9 °F - 41.0 °F 17% 29.75 in 10.0 mi SW 9.2 mph - N/A   Clear
10:52 PM 91.0 °F - 39.9 °F 17% 29.75 in 10.0 mi SW 8.1 mph - N/A   Clear
11:52 PM 89.1 °F - 37.9 °F 16% 29.75 in 10.0 mi SSE 5.8 mph - N/A   Clear